Other Public Products
Issued by NWS Grand Forks, ND

Home | Current Version | Previous Version | Graphics & Text | Print | Product List | Glossary On
Versions: 1 2 3 4 5 6 7 8 9 10 11 12 13 14 15 16 17 18 19 20 21 22 23 24 25 26 27 28 29 30 31 32 33 34 35 36 37 38 39 40 41 42 43 44 45 46 47 48 49 50
000
FPUS83 KFGF 170631
OPUFGF
PRAIRIE TO PINES WEATHER ROUNDUP
NATIONAL WEATHER SERVICE EASTERN NORTH DAKOTA/GRAND FORKS ND
1200 AM CST TUE JAN 17 2017

 **SATELLITE DATA USED TO AUGMENT SKY COVER AT AUTOMATED STATIONS**
 *****  WEATHER ACROSS EASTERN NORTH DAKOTA  *****

CITY           SKY/WX    TMP DP  RH WIND       PRES   REMARKS
GRAND FORKS    FAIR       2  -2  83 SW5       30.01F WCI  -8
6HR MIN TEMP:   2; 6HR MAX TEMP:  11;

GRAND FORKS AF CLEAR      5   1  85 SW3       29.99F
GRAND CITY NWS NOT AVBL
BUXTON           N/A      7   6  94 W3          N/A
DEVILS LAKE    FAIR       9   6  88 W14       30.00R WCI  -7
6HR MIN TEMP:   4; 6HR MAX TEMP:  11;

FARGO          FAIR       5   2  87 W8        30.04R WCI  -8
6HR MIN TEMP:   5; 6HR MAX TEMP:  16;

WAHPETON ARPT  FAIR       3   0  85 W6        30.04S WCI  -8
$$

 *****  WEATHER ACROSS CENTRAL AND WESTERN NORTH DAKOTA  *****

CITY           SKY/WX    TMP DP  RH WIND       PRES   REMARKS
JAMESTOWN      FAIR      11   9  92 W8        29.99F WCI  -1
6HR MIN TEMP:   9; 6HR MAX TEMP:  14;

BISMARCK       FAIR      10   6  84 W8        30.06F WCI  -2
6HR MIN TEMP:   6; 6HR MAX TEMP:  19;

MINOT          FAIR      18  13  80 SW16      29.99F WCI   3
6HR MIN TEMP:  17; 6HR MAX TEMP:  23;

MINOT AFB      FAIR      16  11  81 W9        29.97F WCI   5
6HR MIN TEMP:  11; 6HR MAX TEMP:  20;

GARRISON         N/A      8   5  87 CALM      30.01F
6HR MIN TEMP:   7; 6HR MAX TEMP:  18;

WILLISTON      FAIR       9   6  88 S5        30.01F WCI   1
6HR MIN TEMP:   7; 6HR MAX TEMP:  17;

DICKINSON      FAIR      12   7  80 SW8       30.00F WCI   0
6HR MIN TEMP:   9; 6HR MAX TEMP:  17;

HETTINGER      FAIR       8   4  83 W3        30.05F
6HR MIN TEMP:   3; 6HR MAX TEMP:  15;

$$

 *****  OTHER OBSERVATIONS NORTHEAST NORTH DAKOTA  *****

CITY           SKY/WX    TMP DP  RH WIND       PRES   REMARKS
WALHALLA       NOT AVBL
LANGDON        NOT AVBL
CAVALIER         N/A      0  -2  92 W6        30.00S WCI -12
GRAFTON        FAIR       1  -2  85 SW5       30.01F WCI  -8
CANDO          NOT AVBL
FORT TOTTEN      N/A     13  12  95 W5        29.95S WCI   5
ROLLA            N/A    N/A N/A N/A MISG        N/A
RUGBY          FOG        7   5  92 W3        29.99F VSB 1/2
 ***** THE ABOVE OBSERVATIONS ARE NON NWS ARE NOT QUALITY
        CONTROLLED AND MAY MIS-REPORT RAIN FOR SNOW...
$$

 *****  OTHER OBSERVATIONS SOUTHEAST NORTH DAKOTA *****

CITY           SKY/WX    TMP DP  RH WIND       PRES   REMARKS
COOPERSTOWN    FAIR       5   1  85 W9        29.99F WCI  -9
VALLEY CITY    FAIR       7   7 100 NW7       30.01S WCI  -5
OAKES          NOT AVBL
GWINNER        FAIR      10   9  92 W10       30.02S WCI  -3
BUFFALO          N/A      8   4  84 W6          N/A  WCI  -2
WYNDMERE         N/A      5   1  85 W5          N/A  WCI  -4
 ***** THE ABOVE OBSERVATIONS ARE NON NWS ARE NOT QUALITY
       CONTROLLED AND MAY MIS-REPORT RAIN FOR SNOW...
$$

  *****  WEATHER ACROSS NORTHERN MINNESOTA  *****

CITY           SKY/WX    TMP DP  RH WIND       PRES   REMARKS
FLAG ISLAND    FAIR       0  -2  92 N5        29.99R WCI -10
WARROAD        FAIR       3   0  85 W5        29.99S WCI  -6
ROSEAU         FAIR       3  -2  78 CALM      29.99S
HALLOCK        FAIR       3   1  92 SE8       29.98F WCI -10
THF RVR FALLS  FAIR       3   0  85 SE5       30.00F FOG     WCI  -6
6HR MIN TEMP:   3; 6HR MAX TEMP:  11;

HALSTAD          N/A      4   1  87 S3          N/A
FOSSTON        FAIR       0  -2  92 CALM      30.00R
BAUDETTE       FAIR       2  -1  88 CALM      29.96F
6HR MIN TEMP:   0; 6HR MAX TEMP:  16;

WASKISH        FAIR       1  -2  85 CALM      29.98S
CROOKSTON      FAIR       3   1  92 SE9       30.01F WCI -11
$$
  *****  WEATHER ACROSS CENTRAL AND WEST MINNESOTA  *****

CITY           SKY/WX    TMP DP  RH WIND       PRES   REMARKS
BEMIDJI        FAIR       7   5  91 CALM      29.97F
PARK RAPIDS    HAZE       0  -6  76 CALM      29.97S VSB 1/4
6HR MIN TEMP:   0; 6HR MAX TEMP:  22;

WADENA         FAIR       3   1  92 CALM      29.98F FOG
DETROIT LAKES  FAIR       7   3  85 S5        30.00S WCI  -2
MOORHEAD       FAIR       7   3  85 CALM      30.04R
FERGUS FALLS   FAIR      10   7  85 N3        30.06F
ELBOW LAKE     FAIR       8   7  93 CALM      30.01F FOG
6HR MIN TEMP:   6; 6HR MAX TEMP:  17;

MORRIS MN      FOG        7   3  85 NW7       30.02R VSB<1/4 WCI  -5
STAPLES        FAIR       5   1  85 CALM      29.98F FOG
WHEATON        FAIR      12  10  92 CALM      30.06S
$$
  *****  WEATHER ELSEWHERE ACROSS MINNESOTA  *****

CITY           SKY/WX    TMP DP  RH WIND       PRES   REMARKS
DULUTH         FAIR      22  16  78 N6        29.98S WCI  14
6HR MIN TEMP:  17; 6HR MAX TEMP:  28;

INTRNTL FALLS  FAIR       3  -1  83 CALM      29.97F
6HR MIN TEMP:   2; 6HR MAX TEMP:  19;

ELY            FAIR       7   3  85 CALM      29.98S FOG
CLOQUET        FAIR      18  12  79 CALM      29.98S
BRAINERD       FAIR       9   6  88 CALM      29.99S FOG
6HR MIN TEMP:   8; 6HR MAX TEMP:  23;

HIBBING        FAIR       2   0  91 N3        29.97F
6HR MIN TEMP:   2; 6HR MAX TEMP:  18;

ALEXANDRIA     FAIR      10   8  92 NW3       29.99S FOG
6HR MIN TEMP:   8; 6HR MAX TEMP:  25;

SAINT CLOUD    CLOUDY    25  21  85 N3        29.99S
6HR MIN TEMP:  21; 6HR MAX TEMP:  25;

MINNEAPOLIS    FRZ RAIN  30  26  85 N8        29.95F FOG     WCI  22
6HR MIN TEMP:  30; 6HR MAX TEMP:  32; 6HR PCP:  0.11;

$$

  *****  WEATHER ACROSS SOUTH DAKOTA  *****

CITY           SKY/WX    TMP DP  RH WIND       PRES   REMARKS
SIOUX FALLS    CLOUDY    25  22  88 NW10      29.99R WCI  15
6HR MIN TEMP:  24; 6HR MAX TEMP:  31; 6HR PCP: TRACE;

BROOKINGS      SNOW      18  18 100 NW7       29.98R VSB 1/4 WCI   8
WATERTOWN      FAIR       1  -2  87 CALM      29.99S FOG
6HR MIN TEMP:   2; 6HR MAX TEMP:  21;

HURON          FAIR       4   3  96 NW6       30.06S WCI  -7
6HR MIN TEMP:   3; 6HR MAX TEMP:  14;

SISSETON         N/A      5   3  91 CALM      30.02S
ABERDEEN       FAIR       1  -3  83 W3        30.04F
6HR MIN TEMP:   1; 6HR MAX TEMP:  11;

MITCHELL       FAIR      11   7  84 W7        30.07R WCI   0
PIERRE         FAIR      14  11  87 W8        30.06F WCI   3
6HR MIN TEMP:   9; 6HR MAX TEMP:  18;

MOBRIDGE       FAIR      11   6  81 NW7       30.03S WCI   0
RAPID CITY     FAIR      18  10  71 CALM      30.06S
6HR MIN TEMP:  15; 6HR MAX TEMP:  29;

$$

  *****  SOME WEATHER IN NEARBY STATES *****

CITY           SKY/WX    TMP DP  RH WIND       PRES   REMARKS
GLASGOW MT     FAIR       8   5  87 E12       29.93F WCI  -7
6HR MIN TEMP:   6; 6HR MAX TEMP:  11;

GREAT FALLS MT FAIR      32  19  58 S22       29.90F WCI  19
6HR MIN TEMP:  31; 6HR MAX TEMP:  34;

CHEYENNE WY    FAIR      17  10  74 W9        30.07S WCI   6
6HR MIN TEMP:  16; 6HR MAX TEMP:  33;

SCOTTSBLUFF NE FAIR      21  15  78 NW7       30.10S WCI  12
6HR MIN TEMP:  21; 6HR MAX TEMP:  34;

OMAHA NE       CLOUDY    34  30  85 NW16      29.97R FOG     WCI  24
6HR MIN TEMP:  33; 6HR MAX TEMP:  34; 6HR PCP: TRACE;

DES MOINES IA  FOG       34  33  96 NW10      29.88S VSB 1/4
6HR MIN TEMP:  33; 6HR MAX TEMP:  34; 6HR PCP: TRACE;

DAVENPORT IA   FOG       35  34  96 N7        29.80F VSB 1/2
6HR MIN TEMP:  34; 6HR MAX TEMP:  36; 6HR PCP: TRACE;

CHICAGO IL     DRZL/FOG  37  37 100 NE7       29.82F VSB 3/4
6HR MIN TEMP:  36; 6HR MAX TEMP:  37; 6HR PCP:  0.20;

EAU CLAIRE WI  MIX PCPN  32  32 100 NE6       29.92F FOG
6HR MIN TEMP:  29; 6HR MAX TEMP:  32; 6HR PCP:  0.51;

LA CROSSE WI   CLOUDY    36  32  85 W5        29.90F FOG
6HR MIN TEMP:  36; 6HR MAX TEMP:  38; 6HR PCP:  0.16;

$$

  *****  SOME NATIONAL WEATHER *****

CITY           SKY/WX    TMP DP  RH WIND       PRES   REMARKS
LA GUARDIA NY  CLOUDY    42  25  50 SW10      30.27F
6HR MIN TEMP:  42; 6HR MAX TEMP:  43;                             C1F1C2F2C3F3C4F4C5F5C6F6C7F7C8F8C9F9CaFaCbFbCcFcCdFdCe!


USA.gov is the U.S. government's official web portal to all federal, state and local government web resources and services.